www.pogodaiklimat.ru
ПОГОДА в Йокиойнене
Время
(UTC), дата
10 12.10
11 12.10
12 12.10
13 12.10
14 12.10
15 12.10
16 12.10
17 12.10
18 12.10
19 12.10
20 12.10
21 12.10
22 12.10
23 12.10
00 13.10
01 13.10
02 13.10
03 13.10
04 13.10
05 13.10
06 13.10
07 13.10
08 13.10
09 13.10
10 13.10
11 13.10
12 13.10
13 13.10
14 13.10
15 13.10
16 13.10
17 13.10
18 13.10
19 13.10
20 13.10
21 13.10
22 13.10
23 13.10
00 14.10
01 14.10
02 14.10
03 14.10
04 14.10
05 14.10
06 14.10
07 14.10
08 14.10
09 14.10
10 14.10
11 14.10
12 14.10
13 14.10
14 14.10
15 14.10
16 14.10
17 14.10
18 14.10
19 14.10
20 14.10
21 14.10
22 14.10
23 14.10
00 15.10
01 15.10
02 15.10
03 15.10
04 15.10
05 15.10
06 15.10
07 15.10
08 15.10
09 15.10
10 15.10
11 15.10
12 15.10
13 15.10
14 15.10
15 15.10
16 15.10
17 15.10
19 15.10
20 15.10
21 15.10
22 15.10
23 15.10
00 16.10
01 16.10
02 16.10
03 16.10
04 16.10
05 16.10
06 16.10
07 16.10
08 16.10
09 16.10
10 16.10
11 16.10
12 16.10
13 16.10
14 16.10
15 16.10
16 16.10
17 16.10
18 16.10
19 16.10
20 16.10
21 16.10
22 16.10
23 16.10
00 17.10
01 17.10
02 17.10
03 17.10
04 17.10
05 17.10
06 17.10
07 17.10
08 17.10
09 17.10
10 17.10
11 17.10
12 17.10
13 17.10
14 17.10
15 17.10
16 17.10
17 17.10
18 17.10
19 17.10
20 17.10
21 17.10
22 17.10
23 17.10
00 18.10
01 18.10
02 18.10
03 18.10
04 18.10
05 18.10
06 18.10
07 18.10
09 18.10
10 18.10
11 18.10
12 18.10
13 18.10
14 18.10
15 18.10
16 18.10
17 18.10
18 18.10
19 18.10
20 18.10
21 18.10
22 18.10
23 18.10
00 19.10
01 19.10
02 19.10
03 19.10
05 19.10
06 19.10
07 19.10
08 19.10
09 19.10
Ветер
(напр.,м/с)
Видим. Явления Облачность Т
(С)
Тd
(С)
f
(%)
Тe
(С)
Тes
(С)
Комфортность P
(гПа)
Po
(гПа)
Тmin
(С)
Tmax
(С)
R
(мм)
R24
(мм)
S
(см)
З 3-6
{6}
50 км 9/9 200 м
[]
+10.2 +9.0 92 +8 +8 тепло 988.6 976.3
З 2-5
{6}
50 км в посл. час дождь 9/9 300 м
[]
+9.4 +8.5 94 +8 +8 тепло 989.9 977.5 0.3
СЗ 3-7
{7}
40 км в посл. час снег {ливн. осадки, дождь} 9/9 300 м
[]
+9.5 +8.3 92 +7 +7 тепло 991.2 978.8
СЗ 4-7
{8}
8000 м слаб. ливневой дождь 9/9 200 м
[]
+8.5 +7.7 95 +5 +5 тепло 992.6 980.1
З 2-5
{6}
12 км слаб. ливневой дождь 9/9 200 м
[]
+8.4 +7.9 97 +6 +6 тепло 993.5 981.0
З 3-6
{6}
50 км {ливн. осадки} 10/10 1000 м
[]
+8.2 +7.4 95 +5 +5 тепло 994.5 982.0
З 2-3
{5}
30 км 9/9 600 м
[]
+8.0 +7.4 96 +6 +6 тепло 995.2 982.7
З 3-5
{6}
50 км в посл. час осадки 10/10 300 м
[]
+7.8 +7.2 96 +5 +5 тепло 995.6 983.1
ЮЗ 2-3
{4}
50 км {ливн. осадки, морось} 9/0 600 м
[]
+7.5 +7.0 97 +5 +5 тепло 995.9 983.3 +7.3 +10.4
ЮЗ 2-3
{4}
50 км 9/9 300 м
[]
+7.3 +6.9 97 +5 +5 тепло 996.3 983.7
ЮЗ 2-3
{4}
50 км 10/0 1000 м
[]
+7.3 +6.8 97 +5 +5 тепло 996.4 983.8
ЮЗ 2-3
{4}
9000 м туман на расстоянии 10/10 600 м
[]
+7.3 +7.0 98 +5 +5 тепло 996.7 984.1
Ю 3-4
{4}
6000 м ливневой дождь 10/10 600 м
[]
+7.3 +7.3 100 +4 +4 по сезону 996.6 984.0 0.3
Ю 2-4
{4}
20 км 10/10 50 м
[]
+7.4 +7.4 100 +5 +5 тепло 996.5 984.0 0.1
ЮЗ 2-3
{4}
20 км слаб. дождь 9/9 50 м
[]
+7.6 +7.6 100 +5 +5 тепло 996.6 984.0 0.3
Ю 3-4
{4}
19 км в посл. час дождь 9/9 50 м
[]
+7.6 +7.6 100 +5 +5 тепло 996.5 983.9 0.1
ЮЗ 2-3
{3}
14 км 10/0 50 м
[]
+7.7 +7.7 100 +5 +5 тепло 996.8 984.3
ЮЗ 2-3
{4}
7000 м дымка {дождь} 9/9 <50 м
[]
+7.9 +7.9 100 +6 +6 тепло 997.2 984.7
ЮЗ 3-5
{5}
13 км 10/10 100 м
[]
+8.3 +8.3 100 +5 +5 тепло 997.5 985.0
З 3-5
{5}
16 км 10/10 100 м
[]
+8.4 +8.4 100 +6 +6 тепло 998.1 985.6
З 3-5
{5}
24 км {дождь, морось} 9/9 100 м
[]
+8.5 +8.2 98 +6 +6 тепло 998.8 986.2 +7.1 +8.5 0
З 3-6
{7}
40 км 10/10 100 м
[]
+8.6 +8.2 97 +6 +6 тепло 999.5 987.0
З 4-7
{7}
17 км 9/9 200 м
[]
+9.0 +8.3 95 +6 +6 тепло 1000.3 987.8
З 4-8
{8}
50 км н/о +8.3 +6.7 90 +5 +5 тепло 1001.6 989.0
З 4-8
{10}
45 км 4/4 600 м
[]
+9.4 +5.6 77 +7 +8 тепло 1002.7 990.1
З 5-9
{9}
50 км 6/6 600 м
[]
+8.5 +5.1 79 +5 +5 тепло 1004.0 991.3
З 2-5
{8}
24 км в посл. час снег {ливн. осадки, дождь} 9/9 300 м
[]
+8.2 +6.1 87 +6 +6 тепло 1005.2 992.5
З 4-8
{8}
40 км слаб. ливневой дождь 9/9 300 м
[]
+9.3 +5.7 78 +6 +7 тепло 1006.0 993.4
СЗ 4-7
{8}
50 км 6/6 300 м
[]
+7.8 +4.5 80 +5 +5 тепло 1007.4 994.7
З 3-7
{8}
50 км {ливн. осадки, дождь} 6/0 600 м
[]
+6.5 +3.5 81 +3 +3 по сезону 1008.6 995.8
З 3-5
{6}
50 км ясно +5.1 +3.0 86 +2 +2 по сезону 1009.6 996.7
З 2-3
{5}
50 км 4/4 600 м
[]
+3.8 +2.7 93 +1 +1 по сезону 1010.2 997.3
ЮЗ 2-2
{3}
45 км {ливн. осадки, дождь} 1/0 600 м
[]
+1.9 +1.6 98 -2 -2 по сезону 1011.0 998.0 +1.9 +9.7
ЮЗ 2-2
{2}
40 км 1/0 300 м
[]
+1.9 +1.9 100 -2 -2 по сезону 1011.7 998.6
ЮЗ 2-3
{3}
8000 м дымка ясно +0.7 +0.7 100 -3 -3 прохладно 1012.0 998.9
ЮЗ 2-2
{3}
12 км ясно -0.4 -0.4 100 -4 -4 прохладно 1012.2 999.1
ЮЗ 2-3
{4}
10 км ясно -0.9 -0.9 100 -5 -5 холодно 1012.7 999.5
Ю 2-2
{2}
18 км 1/0 600 м
[]
-0.9 -0.9 100 -5 -5 холодно 1012.6 999.5
В 1-2
{3}
10 км ?/? -1.1 -1.1 100 -3 -3 прохладно 1011.7 998.6
В 3-3
{3}
13 км в посл. час туман 4/0 <50 м
[]
-1.0 -1.0 100 -6 -6 холодно 1011.3 998.1
В 2-2
{3}
4600 м в посл. час туман ?/? -0.8 -0.8 100 -5 -5 холодно 1010.8 997.7
В 2-3
{3}
200 м сильная пыльная буря {метель} ?/? 0.0 0.0 100 -4 -4 прохладно 1010.1 997.0
В 2-3
{3}
500 м туман 9/0 <50 м
[]
+0.6 +0.6 100 -3 -3 прохладно 1009.1 996.1
В 3-3
{3}
17 км в посл. час туман 9/6 50 м
[]
+1.5 +1.5 100 -3 -3 прохладно 1008.7 995.7
В 3-4
{4}
21 км морось {туман} 10/10 1000 м
[]
+2.7 +2.7 100 -2 -2 по сезону 1008.1 995.2 -1.5 +2.8 0
В 3-4
{5}
23 км слаб. дождь 10/10 600 м
[]
+3.1 +3.0 99 -1 -1 по сезону 1007.6 994.7 0.5
В 3-6
{6}
29 км слаб. дождь 10/10 100 м
[]
+3.5 +3.3 99 -1 -1 по сезону 1007.0 994.1 0.5
СВ 4-6
{6}
29 км слаб. дождь 9/9 100 м
[]
+3.9 +3.8 99 -1 -1 по сезону 1007.0 994.2 0.6
СВ 4-5
{7}
30 км слаб. дождь 9/9 100 м
[]
+4.3 +4.1 99 -0 -0 по сезону 1007.2 994.3 0.8
СВ 4-6
{6}
50 км слаб. дождь 9/9 100 м
[]
+4.7 +4.4 98 0 0 по сезону 1006.9 994.1 0.5
СВ 5-7
{8}
40 км слаб. морось {дождь} 6/6 200 м
[]
+5.5 +4.5 93 +1 +1 по сезону 1006.8 994.0 0.1
СВ 4-7
{8}
50 км 6/6 300 м
[]
+5.2 +4.0 92 +1 +1 по сезону 1007.9 995.1
СВ 4-5
{6}
50 км 9/9 300 м
[]
+5.1 +3.7 91 +1 +1 по сезону 1009.0 996.2
СВ 3-4
{8}
50 км 9/9 300 м
[]
+4.6 +3.1 90 +1 +1 по сезону 1010.8 997.9
-7
{7}
50 км 10/10 300 м
[]
+4.3 +3.0 91 1012.4 999.5
С 4-5
{7}
50 км 10/10 300 м
[]
+3.6 +2.2 91 -1 -1 по сезону 1013.3 1000.3
С 2-3
{5}
50 км 1/0
[]
+1.8 +1.2 96 -2 -2 по сезону 1014.5 1001.4 +1.8 +5.5
СЗ 2-3
{3}
21 км ясно -0.2 -0.2 100 -4 -4 прохладно 1015.6 1002.4
СЗ 2-2
{3}
9000 м дымка 1/0
[]
-0.6 -0.6 100 -5 -5 холодно 1016.6 1003.4
СЗ 2-2
{2}
12 км 1/0
[]
-1.7 -1.7 100 -6 -6 холодно 1017.2 1004.0
СЗ 1-2
{2}
3800 м дымка ясно -2.3 -2.3 100 -5 -5 холодно 1017.9 1004.6
СЗ 1-2
{2}
27 км ясно -2.1 -2.1 100 -5 -5 холодно 1019.1 1005.8
ЮЗ 1-1
{2}
5000 м дымка ясно -2.7 -2.7 100 -5 -5 холодно 1019.6 1006.2
ЮЗ 2-2
{2}
45 км ясно -2.9 -2.9 100 -7 -7 холодно 1020.2 1006.8
ЮЗ 2-2
{2}
40 км ясно -3.0 -3.0 100 -7 -7 холодно 1021.1 1007.7
ЮЗ 3-4
{4}
5000 м дымка 4/0 <50 м
[]
-3.0 -3.0 100 -8 -8 очень
холодно
1021.3 1007.9
Ю 1-1
{4}
45 км 1/0
[]
-3.5 -3.5 100 -6 -6 холодно 1021.5 1008.1
Ю 2-3
{3}
24 км 4/0
[]
-3.5 -3.5 100 -8 -8 очень
холодно
1021.7 1008.3
ЮВ 1-1
{2}
17 км 1/0
[]
-2.7 -2.7 100 -5 -5 холодно 1022.0 1008.7 -3.7 +1.7 0
Ю 1-2
{3}
30 км 4/0
[]
-0.9 -0.9 100 -3 -3 прохладно 1022.4 1009.1
Ю 1-2
{3}
22 км 6/0
[]
+0.6 +0.6 100 -2 -1 по сезону 1022.9 1009.7
Ю 3-5
{5}
50 км 1/0
[]
+2.3 +0.4 87 -2 -1 по сезону 1023.3 1010.1
Ю 2-4
{5}
45 км 4/4
[]
+4.2 +1.5 83 +1 +3 по сезону 1023.0 1009.9
ЮВ 3-4
{5}
50 км 6/0
[]
+4.5 +0.8 77 +1 +2 по сезону 1022.8 1009.7
ЮВ 3-4
{5}
50 км 4/0
[]
+4.9 +1.7 80 +1 +3 по сезону 1022.5 1009.5
ЮВ 3-4
{5}
50 км 9/9
[]
+4.5 +2.4 86 +1 +1 по сезону 1022.7 1009.6
ЮВ 2-3
{4}
50 км 9/9 2000 м
[]
+4.0 +2.8 92 +1 +1 по сезону 1022.6 1009.5
ЮВ 2-3
{4}
50 км 9/0 1500 м
[]
+3.7 +2.4 91 +1 +1 по сезону 1022.4 1009.3
ЮВ 2-3
{3}
50 км 9/9
[]
+3.4 +2.2 92 0 0 по сезону 1021.9 1008.8
В 3-4
{4}
50 км 9/9 2000 м
[]
+3.6 +2.4 92 -0 -0 по сезону 1021.6 1008.6
ЮВ 3-4
{5}
50 км 9/0 1500 м
[]
+3.7 +2.6 93 -0 -0 по сезону 1021.4 1008.3
В 3-3
{4}
13 км слаб. дождь 9/0 1000 м
[]
+3.4 +3.0 97 -1 -1 по сезону 1021.1 1008.0 0.5
В 4-5
{5}
28 км морось {дождь} 9/9 600 м
[]
+3.6 +3.1 97 -1 -1 по сезону 1020.4 1007.3 0.5
В 8-11
{11}
11 км дождь 9/9 600 м
[]
+3.8 +2.7 93 -3 -3 прохладно 1020.2 1007.1 1
В 6-9
{11}
24 км слаб. дождь 9/6 1500 м
[]
+3.4 +2.5 94 -2 -2 по сезону 1019.0 1006.0 0.5
В 5-8
{8}
29 км ливневой дождь 9/9 1500 м
[]
+3.2 +2.6 96 -2 -2 по сезону 1018.2 1005.2 0.5
В 6-8
{9}
50 км в посл. час дождь 9/0 1500 м
[]
+3.4 +2.7 95 -2 -2 по сезону 1017.2 1004.2 0.1
В 6-9
{9}
50 км в посл. час морось 9/9 300 м
[]
+3.5 +2.8 95 -2 -2 по сезону 1016.6 1003.6
В 6-8
{9}
15 км ливневой дождь 9/9 200 м
[]
+3.3 +2.9 97 -3 -3 прохладно 1015.6 1002.6 0.4
В 6-8
{10}
50 км в посл. час морось 9/9 100 м
[]
+3.6 +3.1 97 -2 -2 по сезону 1015.0 1002.0
В 7-11
{11}
17 км 9/9 100 м
[]
+3.8 +3.4 97 -2 -2 по сезону 1014.1 1001.1
В 6-10
{10}
6000 м дымка {ливн. осадки, дождь} 9/9 100 м
[]
+4.0 +3.8 99 -2 -2 по сезону 1013.4 1000.5 +3.2 +4.0 0
В 5-7
{10}
5000 м дымка 9/9 50 м
[]
+4.3 +4.2 99 -1 -1 по сезону 1013.2 1000.3
В 5-8
{8}
4400 м дымка 9/9 50 м
[]
+4.5 +4.4 99 -1 -1 по сезону 1013.1 1000.2
СВ 5-7
{7}
2300 м дымка 9/9 50 м
[]
+4.5 +4.5 100 -1 -1 по сезону 1012.9 1000.0
СВ 6-8
{9}
3600 м дымка 9/9 50 м
[]
+4.1 +4.0 99 -2 -2 по сезону 1012.5 999.5
СВ 5-8
{10}
3900 м дымка 10/10 50 м
[]
+3.8 +3.8 100 -2 -2 по сезону 1012.0 999.1
СВ 6-10
{10}
3300 м дымка 10/10 50 м
[]
+3.6 +3.5 99 -2 -2 по сезону 1011.8 998.9
В 6-10
{10}
4800 м слаб. ливневой снег 10/10 50 м
[]
+3.4 +3.3 99 -3 -3 прохладно 1011.4 998.4
В 5-8
{10}
7000 м дымка 10/10 100 м
[]
+3.4 +3.3 99 -2 -2 по сезону 1011.3 998.4
В 6-10
{10}
5000 м дымка {ливн. осадки, снег} 10/10 50 м
[]
+3.4 +3.3 99 -3 -3 прохладно 1011.1 998.2
В 5-7
{9}
2500 м дымка 10/10 50 м
[]
+3.3 +3.3 100 -2 -2 по сезону 1011.3 998.3
В 5-8
{9}
3600 м слаб. снег 10/10 100 м
[]
+3.5 +3.3 99 -2 -2 по сезону 1011.0 998.1 0.1
В 4-7
{10}
3300 м туман местами {ливн. осадки, снег} 10/10 50 м
[]
+3.6 +3.6 100 -1 -1 по сезону 1010.9 998.0 +3.3 +4.5 0.1
СВ 5-7
{7}
4300 м в посл. час осадки 10/10 50 м
[]
+3.6 +3.6 100 -2 -2 по сезону 1010.8 997.9
В 6-8
{9}
12 км 10/10 100 м
[]
+3.7 +3.5 99 -2 -2 по сезону 1010.6 997.6
СВ 6-8
{10}
4900 м дымка {туман} 10/10 100 м
[]
+3.5 +3.4 99 -2 -2 по сезону 1010.4 997.4
В 5-9
{9}
19 км 10/10 100 м
[]
+3.6 +3.3 98 -2 -2 по сезону 1010.6 997.7
В 7-9
{9}
10 км 10/10 100 м
[]
+3.6 +3.4 99 -3 -3 прохладно 1010.2 997.3
В 7-10
{10}
16 км {туман} 10/10 100 м
[]
+3.7 +3.3 97 -3 -3 прохладно 1009.9 997.0
В 5-8
{10}
14 км 10/10 100 м
[]
+3.6 +3.2 97 -2 -2 по сезону 1009.7 996.8
В 6-10
{10}
6000 м дымка 10/10 100 м
[]
+3.4 +3.1 98 -3 -3 прохладно 1009.7 996.8
В 5-8
{10}
5000 м дымка 10/10 100 м
[]
+3.3 +3.1 99 -2 -2 по сезону 1009.2 996.3
В 6-8
{9}
29 км 10/10 100 м
[]
+3.4 +2.9 97 -2 -2 по сезону 1008.9 996.0
В 5-8
{9}
8000 м дымка 10/0 100 м
[]
+3.3 +3.0 98 -2 -2 по сезону 1008.8 995.9
В 6-9
{9}
5000 м дымка 10/0 100 м
[]
+3.2 +3.0 99 -3 -3 прохладно 1008.9 996.0 +3.1 +3.8 0
В 6-8
{9}
6000 м дымка 10/0 100 м
[]
+3.3 +3.1 99 -3 -3 прохладно 1008.7 995.8
В 7-10
{10}
5000 м дымка 10/10 100 м
[]
+3.4 +3.3 99 -3 -3 прохладно 1009.0 996.0
В 6-8
{9}
5000 м слаб. дождь {морось} 10/10 100 м
[]
+3.6 +3.4 99 -2 -2 по сезону 1009.3 996.4 0.1
В 6-9
{9}
3900 м слаб. дождь 10/10 100 м
[]
+3.6 +3.4 99 -2 -2 по сезону 1009.2 996.3 0.2
В 4-6
{8}
3900 м осадки 10/10 100 м
[]
+3.8 +3.5 98 -1 -1 по сезону 1009.6 996.7 0.1
В 4-6
{6}
2600 м слаб. дождь {морось} 10/10 100 м
[]
+4.0 +3.8 99 -1 -1 по сезону 1009.7 996.8
В 3-5
{6}
6000 м морось 10/10 50 м
[]
+4.0 +3.9 99 0 0 по сезону 1009.8 996.9 0.3
В 4-7
{7}
9000 м слаб. дождь 10/10 100 м
[]
+4.1 +4.0 99 -1 -1 по сезону 1010.2 997.3 0.1
В 3-5
{5}
4500 м морось {ливн. осадки, дождь} 10/10 50 м
[]
+4.0 +4.0 100 0 0 по сезону 1010.5 997.6
СВ 3-4
{6}
3300 м в посл. час морось 10/10 50 м
[]
+4.0 +4.0 100 0 0 по сезону 1010.9 998.0
В 3-5
{5}
4500 м дымка 10/10 50 м
[]
+4.0 +4.0 100 0 0 по сезону 1010.9 998.0
В 4-5
{5}
4600 м слаб. дождь 10/10 50 м
[]
+4.0 +4.0 100 -1 -1 по сезону 1011.1 998.2 +3.2 +4.2 0.3
В 3-4
{5}
2200 м слаб. ливневой дождь 10/10 50 м
[]
+4.0 +4.0 100 0 0 по сезону 1011.1 998.2 0.1
В 3-4
{5}
3900 м слаб. дождь 10/10 50 м
[]
+4.0 +4.0 100 0 0 по сезону 1011.4 998.5 0.2
В 3-4
{6}
5000 м морось {ливн. осадки, дождь} 10/10 50 м
[]
+4.0 +4.0 100 0 0 по сезону 1011.5 998.6 0.4
В 3-5
{5}
15 км в посл. час морось 10/10 50 м
[]
+4.0 +4.0 100 0 0 по сезону 1011.6 998.7 0.1
ЮВ 3-4
{5}
10 км 10/0 50 м
[]
+4.1 +4.1 100 0 0 по сезону 1011.8 998.9
ЮВ 2-3
{4}
5000 м дымка {ливн. осадки, дождь} 10/10 50 м
[]
+4.1 +4.1 100 +1 +1 по сезону 1011.8 998.9
ЮВ 2-3
{3}
3500 м дымка 9/9 <50 м
[]
+4.1 +4.1 100 +1 +1 по сезону 1011.9 999.0
ЮВ 1-2
{2}
1100 м дымка 9/9 <50 м
[]
+4.1 +4.1 100 +2 +2 по сезону 1012.0 999.1
ЮВ 1-2
{2}
700 м сильная пыльная буря {метель} ?/? +4.1 +4.1 100 +2 +2 по сезону 1011.9 999.0
Ю 2-3
{3}
400 м туман ?/? +4.3 +4.3 100 +1 +1 по сезону 1012.0 999.1
Ю 2-3
{3}
600 м туман ?/? +4.4 +4.4 100 +1 +1 по сезону 1011.9 999.0
ЮВ 2-3
{3}
900 м пыльная буря {метель} ?/? +4.5 +4.5 100 +2 +2 по сезону 1012.2 999.3 +3.9 +4.5 0
Ю 2-3
{3}
1300 м в посл. час туман 10/0 <50 м
[]
+4.8 +4.8 100 +2 +2 по сезону 1012.5 999.6
Ю 2-3
{4}
16 км {метель} 9/9 50 м
[]
+5.9 +5.9 100 +3 +3 по сезону 1012.7 999.9
ЮВ 2-3
{4}
3600 м дымка 10/10 <50 м
[]
+6.5 +6.5 100 +4 +4 по сезону 1012.4 999.6
ЮВ 2-4
{4}
4100 м дымка 10/10 50 м
[]
+7.1 +7.1 100 +5 +5 тепло 1012.2 999.4 0.1
ЮВ 2-4
{4}
3600 м туман на расстоянии 10/10 50 м
[]
+7.3 +7.3 100 +5 +5 тепло 1011.7 998.9
ЮВ 2-4
{4}
6000 м в посл. час морось 9/0 50 м
[]
+7.8 +7.8 100 +6 +6 тепло 1011.3 998.6 0.1
ЮВ 3-4
{5}
5000 м дымка 9/0 50 м
[]
+8.2 +8.2 100 +5 +5 тепло 1011.0 998.3
ЮВ 3-5
{5}
1000 м дымка {ливн. осадки} 10/10 <50 м
[]
+8.4 +8.4 100 +6 +6 тепло 1010.7 998.0
ЮВ 4-6
{6}
3000 м в посл. час туман 9/0 50 м
[]
+8.7 +8.7 100 +5 +5 тепло 1010.5 997.8
ЮВ 3-6
{6}
2700 м дымка 9/9 <50 м
[]
+9.1 +9.1 100 +6 +6 тепло 1010.2 997.5
Ю 4-6
{6}
1900 м дымка {ливн. осадки} 10/10 <50 м
[]
+9.4 +9.4 100 +6 +6 тепло 1010.0 997.3 +4.5 +9.4
Ю 3-5
{6}
2300 м в посл. час морось 9/9 <50 м
[]
+9.6 +9.6 100 +7 +7 тепло 1009.8 997.1 0.1
Ю 4-7
{7}
5000 м слаб. ливневой дождь 9/9 50 м
[]
+10.0 +10.0 100 +7 +7 тепло 1009.6 997.0 0.1
Ю 3-4
{5}
30 км {ливн. осадки, дождь} 10/0 2000 м
[]
+9.6 +9.6 100 +7 +7 тепло 1009.4 996.8
Ю 3-4
{5}
16 км 9/6 100 м
[]
+9.5 +9.5 100 +7 +7 тепло 1009.2 996.6
Ю 3-4
{5}
9000 м слаб. дождь 10/10 50 м
[]
+9.5 +9.5 100 +7 +7 тепло 1008.9 996.2
Ю 3-5
{5}
9000 м слаб. ливневой дождь 10/10 50 м
[]
+9.6 +9.6 100 +7 +7 тепло 1008.5 995.9 0.1
ЮВ 2-3
{5}
3900 м слаб. ливневой дождь 9/9 <50 м
[]
+9.6 +9.6 100 +8 +8 тепло 1007.7 995.1 0.1
ЮВ 3-4
{4}
2100 м дымка 10/0 50 м
[]
+9.7 +9.7 100 +7 +7 тепло 1006.9 994.3
ЮВ 3-4
{5}
4000 м дождь {ливн. осадки} 10/10 <50 м
[]
+10.1 +10.1 100 +8 +8 тепло 1006.3 993.7 0.4
Ю 4-7
{7}
7000 м слаб. ливневой дождь 10/10 50 м
[]
+11.0 +11.0 100 +8 +8 тепло 1005.0 992.5 0.4
Ю 4-6
{7}
12 км в посл. час дождь {ливн. осадки} 10/10 50 м
[]
+11.4 +11.4 100 +9 +9 тепло 1004.4 991.9 +9.4 +11.4 0.7 0
Ю 5-9
{9}
7000 м дымка 10/10 100 м
[]
+11.5 +11.4 99 +9 +9 тепло 1003.8 991.4
Ю 6-10
{10}
3400 м сильн. дождь 9/9 100 м
[]
+11.4 +11.3 99 +8 +8 тепло 1003.7 991.2 2
Ю 5-10
{11}
30 км в посл. час дождь со снегом 9/9 200 м
[]
+11.3 +10.9 97 +8 +9 тепло 1004.0 991.5 0.7
Местоположение метеостанции Йокиойнен (Финляндия): широта 60.81 долгота 23.50 высота над уровнем моря 104 м.
В архиве по умолчанию представлена погода в Йокиойнене за последнюю неделю. Архивные данные за месяц целиком и за предыдущие месяцы, начиная с января 2011 года, Вы можете получить, выбрав интересующий диапазон дат из раскрывающегося списка и нажав кнопку "Найти!".
*Определитесь, кто Вы:
Внимание! Время в таблицах - всемирное. Для получения местного времени необходимо прибавить поправку, которая равна 1 ч.
Смотрите также архив погоды в соседних городах и на ближайших метеорологических станциях:
Партнеры нашего сайта:      
Пояснения к столбцам:
  • Ветер - указаны скорость ветра в м/с - средняя за 10 мин, порывы в срок и между сроками (в фигурных скобках) и направление, откуда дует ветер: С - северный,
  • СВ - северо-восточный, В - восточный, ЮВ - юго-восточный, Ю - южный, ЮЗ - юго-западный, З - западный, СЗ - северо-западный.
  • Видимость - горизонтальная дальность видимости в метрах или километрах. При видимости от 1 до 10 км при отсутствии осадков обычно наблюдается дымка, при ухудшении видимости до 1 км и менее - туман. В сухую погоду видимость может ухудшаться дымом, пылью или мглою.
  • Явления - указаны атмосферные явления, наблюдавшиеся в срок или в последний час перед сроком; фигурными скобками обозначены явления, наблюдавшиеся между сроками (за 1-3 часа до срока); квадратными скобками обозначены град или гололедные отложения с указанием их диаметра в мм.
  • Облачность - указаны через наклонную черту общая и нижняя облачность в баллах и высота нижней границы облаков в метрах; квадратными скобками обозначены формы облаков: Ci - перистые, Cs - перисто-слоистые, Cc - перисто-кучевые, Ac - высококучевые, As - высокослоистые, Sc - слоисто-кучевые, Ns - слоисто-дождевые, Cu - кучевые, Cb - кучево-дождевые. Подробнее классификацию облаков см. в Атласе облаков (PDF).
  • T - Температура воздуха - температура, измеренная на высоте 2 м над землей.
  • Td - Температура точки росы - температура, при понижении до которой содержащийся в воздухе водяной пар достигнет насыщения.
  • f - Относительная влажность воздуха - влажноcть воздуха, измеренная на высоте 2 м над землей.
  • Te - Эффективная температура - температура, которую ощущает одетый по сезону человек в тени. Характеристика душности погоды. При расчете учитывается влияние влажности воздуха и скорости ветра на теплоощущения человека.
  • Tes - Эффективная температура на солнце - температура, которую ощущает человек, с поправкой на солнечный нагрев. Характеристика знойности погоды. Зависит от высоты солнца над горизонтом, облачности и скорости ветра. Ночью, в пасмурную погоду, а также при ветре 12 м/с и более поправка равна нулю.
  • P - Атмосферное давление - приведенное к уровню моря атмосферное давление.
  • Po - Атмосферное давление - измеренное на уровне метеостанции атмосферное давление.
  • Tmin - Минимальная температура - минимум температуры воздуха на высоте 2 м над землей.
  • Tmax - Максимальная температура - максимум температуры воздуха на высоте 2 м над землей.
  • R - Количество осадков - Количество выпавших осадков за период времени, мм. При наведении курсора мыши на число - период времени, за который выпало указанное количество осадков.
  • R24 - Количество осадков - Количество выпавших осадков за 24 часа, мм.
  • S - Снежный покров - Высота снежного покрова, см. При наведении курсора мыши на число - состояние снежного покрова и степень покрытия местности в баллах.